Погода в Ольшанке

Россия / Белгородская область     51°00′32″N   37°39′56″E
темп.,
°C
ветер,
м/с
пор.,
м/с
влажн.,
%
обл.,
%
осадки,
мм/ч
давл.,
гПа
погр.,
м
7 марта, вс
вс700:00−5зсз47790 0.0 1021511
03:00−6з488011 0.0 1021472
06:00−6зюз499277 0.0 1019399
09:00−4зюз7127274 0.0 1018915
12:00−2юз91453100 0.0 10151112
15:000юз111751100 0.0 10111347
18:000зюз91764100 0.0 10081328
21:00−1зюз10178398 0.0 10071000
8 марта, пн
пн800:00−1зюз81592100 0.3 1007911
03:00−1зюз6139095 0.4 1007663
06:00−1зюз7139498 0.1 1005685
09:00−1зюз8139299 0.4 1005898
12:000зсз71086100 0.8 1006883
15:00+1зсз6964100 1.1 10071393
18:00−1зсз5873100 0.2 1008605
21:00−3зсз388176 0.2 1010524
9 марта, вт
вт900:00−4зсз36828 0.0 1010427
03:00−4з359152 0.1 1011386
06:00−5сз5787100 0.4 1012551
09:00−6ссз5781100 0.4 1013552
12:00−5ссз677198 0.1 1015947
15:00−5ссз686499 0.1 10181093
18:00−8ссз6869100 0.0 1019911
21:00−9ссз587392 0.0 1022764
10 марта, ср
ср1000:00−10ссз47743 0.0 1023654
03:00−11ссз467711 0.0 1025507
06:00−11ссз35800 0.0 1025406
09:00−11с35740 0.0 1027380
12:00−9с34520 0.0 1028656
15:00−7с33459 0.0 1028740
18:00−8ссв335089 0.0 1027513
21:00−9всв235964 0.0 1028248
11 марта, чт
чт1100:00−10в236653 0.0 1029236
03:00−10вюв236759 0.0 1029195
06:00−10в237130 0.0 1029169
09:00−9ююв236137 0.0 1030336
12:00−6юв33495 0.0 1030719
15:00−4ююв23462 0.0 10291010
18:00−5ююв335134 0.0 1029788
21:00−6юв365524 0.0 1030301